SCP
0 0 0 0 0 0 0 0 0 0 0 0 0 0 0 0 0 0 -0 -0 -0 -0 -0 -0 -0 -0 -0 -0 -0 -0 -0 0 0 0 0 0 0 0 0 0 0 0 0 0
0 0 0 0 0 0 -0 0 0 0 -0 0 0 0 0 -0 -0 -0 -0 -0 -0 -0 -0 -0 -0 -0 -0 -0 -0 -0 -0 0 0 0 0 0 0 0 0 0 0 0 0 0
0 0 0 0 -0 -0 -0 0 -0 -0 0 -0 0 0 -0 -0 -0 -0 0 -0 -0 -0 -0 -0 -0 -0 -0 -0 -0 -0 -0 0 0 0 0 0 0 0 0 0 0 0 0 0
0 0 -0 -0 -0 -0 -0 -0 -0 -0 0 -0 -0 -0 -0 -0 0 0 -0 0 0 -0 -0 -0 -0 -0 -0 -0 -0 -0 0 0 0 0 0 0 0 0 0 0 0 0 0 0
0 -0 0 -0 0 -0 -0 -0 -0 -0 0 0 -0 0 -0 -0 0 0 0 0 0 0 0 -0 -0 -0 -0 -0 -0 0 0 0 0 0 0 0 0 0 0 0 0 0 0 0
0 0 0 0 0 0 -0 -0 -0 0 0 0 0 0 -0 -0 0 0 -0 0 -0 -0 -0 -0 -0 -0 -0 -0 -0 0 0 0 0 0 0 0 0 0 0 0 0 0 0 0
0 0 0 0 -0 0 0 0 0 0 0 0 0 0 0 -0 0 -0 0 0 -0 -0 -0 -0 -0 -0 -0 -0 -0 0 0 0 0 0 0 0 0 0 0 0 0 0 0 0
-0 -0 0 0 0 0 0 0 0 0 0 0 0 -0 -0 0 0 0 0 0 0 0 0 0 -0 -0 -0 -0 -0 0 0 0 0 0 0 0 0 0 0 0 0 0 0 0
-0 0 0 0 0 0 0 0 0 0 0 0 0 0 0 0 0 0 0 0 0 0 0 0 0 0 0 -0 0 0 0 0 0 0 0 0 0 0 0 0 0 0 0 0
0 0 0 0 0 0 0 0 0 0 0 0 0 0 0 -0 -0 -0 -0 0 0 0 0 0 0 0 0 0 0 0 0 0 0 0 0 0 0 0 0 0 0 0 0 0
0 0 0 0 0 0 0 0 0 0 0 0 0 0 0 0 -0 -0 -0 0 0 0 0 0 0 0 0 0 0 0 0 0 0 0 0 0 0 0 0 0 0 0 0 0
0 0 0 0 0 0 0 0 0 0 0 0 0 0 0 0 0 0 -0 0 0 0 0 0 0 0 0 0 0 0 0 0 0 0 0 0 0 0 0 0 0 0 0 0
0 0 0 0 0 0 0 0 0 0 0 0 0 0 0 0 0 0 0 0 0 0 0 0 0 0 0 0 0 0 0 0 0 0 0 0 0 0 0 0 0 0 0 0
0 0 0 0 0 0 0 0 0 0 0 0 0 0 0 0 0 0 0 0 0 0 0 0 0 0 0 0 0 0 0 0 0 0 0 0 0 0 0 0 0 0 0 0
0 0 0 0 0 0 0 0 0 0 0 0 0 0 -0 0 0 0 0 0 0 0 0 0 0 0 0 0 0 0 0 0 0 0 0 0 0 0 0 0 0 0 0 0
0 0 0 0 0 0 0 0 0 0 -0 -0 0 -0 -0 0 0 0 0 0 0 0 0 0 0 0 0 0 0 0 0 0 0 0 0 0 0 0 0 0 0 0 0 0
0 0 0 0 0 0 0 0 0 0 0 0 0 -0 0 0 0 0 0 0 0 0 0 0 0 0 0 0 0 0 0 0 0 0 0 0 0 0 0 0 0 0 0 0
0 0 0 0 0 0 0 0 0 0 0 0 0 0 0 0 0 0 0 0 0 0 0 0 0 0 0 0 0 0 0 0 0 0 0 0 0 0 0 0 0 0 0 0
0 0 0 0 0 0 0 0 0 0 0 0 0 0 0 0 0 0 0 0 0 0 0 0 0 0 0 0 0 0 0 0 0 0 0 0 0 0 0 0 0 0 0 0
0 0 0 0 0 0 0 0 0 0 0 0 0 0 0 0 0 0 0 0 0 0 0 0 0 0 0 0 0 0 0 0 0 0 0 0 0 0 0 0 0 0 0 0
0 0 0 0 0 0 0 0 0 0 0 0 0 0 0 0 0 0 0 0 0 0 0 0 0 0 0 0 0 0 0 0 0 0 0 0 0 0 0 0 0 0 0 0
0 0 0 0 0 0 0 0 0 0 0 0 0 0 0 0 0 0 0 0 0 0 0 0 0 0 0 0 0 0 0 0 0 0 0 0 0 0 0 0 0 0 0 0
0 0 0 0 0 0 0 0 0 0 0 0 0 0 -0 0 0 0 0 0 0 0 0 0 0 0 0 0 0 0 0 0 0 0 0 0 0 0 0 0 0 0 0 0
0 0 0 0 0 0 0 0 0 0 0 0 0 0 0 0 0 0 0 0 0 0 0 0 0 0 0 0 0 0 0 0 0 0 0 0 0 0 0 0 0 0 0 0
0 0 0 0 0 0 0 0 0 0 0 0 0 0 0 0 0 0 0 0 0 0 0 0 0 0 0 0 0 0 0 0 0 0 0 0 0 0 0 0 0 0 0 0
0 0 0 0 0 0 0 0 0 0 0 0 0 0 0 0 0 0 0 0 0 0 0 0 0 0 0 0 0 0 0 0 0 0 0 0 0 0 0 0 0 0 0 0
Wind_Speed_500mb
1 10 6 3 3 4 2 4 9 4 2 9 11 25 25 18 16 21 26 30 34 34 24 28 32 34 36 39 39 38 39 35 39 39 38 37 34 33 33 32 30 32 32 32
8 8 6 13 8 3 3 8 8 7 4 9 14 31 22 13 11 11 11 24 31 30 30 31 34 36 35 34 34 36 35 36 36 36 33 34 34 34 34 34 32 33 33 33
12 6 15 6 9 8 6 10 5 7 13 7 15 15 11 9 12 12 15 16 19 28 32 33 38 37 35 34 31 29 27 29 32 31 34 34 35 34 36 34 31 30 31 35
8 7 11 9 7 7 9 3 2 6 9 6 3 3 14 14 11 12 12 14 15 19 27 35 40 40 36 31 31 29 29 29 30 32 33 31 32 33 32 33 34 36 39 42
6 10 13 11 2 8 4 3 2 4 10 10 11 8 10 9 15 15 16 12 10 12 18 23 32 35 32 33 31 31 32 33 33 34 32 32 33 32 34 38 36 39 42 44
4 1 4 2 7 2 13 4 4 5 6 9 7 7 12 18 22 21 16 13 11 10 14 21 27 31 32 31 30 30 32 32 35 34 33 34 35 38 41 41 44 45 44 45
9 11 7 6 9 8 7 6 5 8 9 4 4 8 14 15 12 20 23 19 14 14 16 20 26 30 31 29 28 28 30 31 32 35 37 38 40 44 48 48 50 50 50 49
16 11 21 16 7 3 15 6 7 6 4 2 4 12 4 10 13 13 17 17 17 19 20 22 25 27 28 26 25 27 28 27 29 31 33 38 42 47 51 52 53 54 54 51
12 8 5 2 2 4 12 14 5 0 1 7 6 9 17 14 18 22 24 21 23 23 24 24 24 23 23 22 21 20 20 20 22 24 30 35 39 42 44 45 48 49 47 48
7 5 2 6 4 2 9 7 6 6 6 9 9 11 11 30 35 30 31 34 30 27 26 25 25 24 23 21 19 18 17 17 18 18 21 22 24 28 32 36 38 40 42 44
12 8 7 6 20 22 10 9 7 5 6 5 6 7 2 31 40 41 45 41 35 30 27 28 28 27 25 22 20 18 16 14 12 9 9 11 16 25 33 39 41 43 46 47
18 7 12 10 4 5 9 14 20 9 11 5 4 10 3 6 32 41 45 43 36 32 33 32 32 31 28 25 23 21 18 13 9 6 4 10 20 32 39 43 46 48 49 48
22 14 9 7 7 7 14 22 14 5 2 14 8 5 2 4 14 31 38 40 38 40 41 39 39 39 35 31 28 25 20 16 12 8 6 12 23 33 43 48 49 49 50 49
26 11 22 15 5 8 12 20 29 27 12 18 23 19 5 9 15 29 38 39 44 47 48 46 45 46 42 38 34 30 26 21 16 12 11 16 27 38 47 52 51 50 48 49
14 17 27 28 6 8 7 14 31 40 44 21 16 33 42 21 18 32 41 39 44 45 52 58 54 53 51 47 42 37 32 26 20 16 17 22 32 43 50 53 52 48 46 44
12 14 9 16 16 24 30 29 31 42 43 46 44 52 33 33 17 22 41 47 52 56 63 64 62 58 59 57 50 43 38 31 24 19 18 25 34 46 52 53 50 47 44 43
17 16 10 21 6 7 24 44 43 30 28 41 36 56 28 21 41 55 48 52 58 66 73 74 70 66 64 64 59 53 44 38 31 26 24 28 40 51 54 49 44 42 42 42
19 22 14 13 7 21 10 5 31 47 43 51 39 47 34 46 46 42 43 53 66 63 73 82 84 82 78 61 64 61 52 45 38 32 30 33 46 55 53 46 43 44 46 48
28 22 9 13 22 32 37 11 17 28 32 47 46 56 66 31 18 57 71 60 64 62 62 61 68 68 72 79 68 67 60 50 42 35 34 40 52 56 48 46 47 46 46 45
20 19 23 9 15 20 1 14 21 20 26 34 55 50 58 31 18 33 31 46 58 79 84 65 57 46 45 60 68 64 59 51 42 37 39 46 55 50 48 48 46 47 48 48
16 17 34 29 22 23 15 17 33 18 7 1 34 59 35 24 40 21 13 14 33 42 48 61 63 51 46 54 61 57 50 47 41 39 41 50 50 48 47 46 49 46 45 48
30 23 19 21 25 44 19 22 28 10 7 12 12 19 34 50 40 49 46 34 30 34 36 46 66 53 48 49 50 48 46 41 38 38 45 47 46 46 47 47 44 44 45 48
21 27 26 25 20 8 45 37 59 36 14 13 11 8 13 23 35 34 35 27 21 23 26 42 51 51 45 43 43 43 38 33 34 41 44 45 45 45 42 42 40 41 43 47
27 26 23 14 38 19 35 53 49 54 60 40 22 17 17 22 23 27 29 29 23 23 30 40 46 47 45 42 37 33 31 33 36 40 42 43 42 38 38 37 40 42 45 49
34 30 34 36 39 9 32 42 56 62 72 59 53 49 40 31 29 24 30 42 34 33 34 37 39 39 38 36 33 32 32 33 35 39 41 40 37 35 35 36 40 43 45 47
43 40 28 34 47 42 57 50 64 72 71 73 67 63 57 46 37 31 34 42 45 48 45 43 41 39 35 32 30 31 32 33 38 40 38 35 34 35 39 42 44 46 44 44
Wind_Direction_500mb
119 232 203 124 48 64 93 289 290 290 66 289 265 282 287 289 244 253 242 226 222 225 221 220 223 224 225 227 229 230 234 232 233 237 243 250 259 266 268 272 273 275 278 281
211 240 107 122 134 161 224 279 275 270 260 287 307 296 288 247 245 245 231 219 222 224 221 221 224 225 227 230 231 230 232 232 235 239 245 253 260 262 266 270 276 278 279 280
253 70 146 173 170 216 225 263 283 308 320 256 297 262 210 194 242 241 238 228 223 221 221 218 221 226 226 225 227 228 228 231 235 238 244 247 257 267 276 280 279 278 274 277
254 132 182 189 225 232 265 174 186 310 309 287 273 272 205 198 236 222 210 216 223 220 220 216 219 223 225 224 225 224 224 228 230 232 239 248 263 275 287 289 287 282 279 278
115 180 184 211 241 199 41 142 325 283 271 288 189 254 136 176 216 203 198 196 200 202 202 208 212 216 218 219 221 223 224 224 227 232 239 250 263 277 282 285 290 290 289 286
112 183 232 21 95 46 136 170 213 226 254 241 126 255 193 186 208 183 190 189 181 176 184 193 197 201 208 213 217 220 223 225 229 235 245 257 270 276 281 287 288 290 290 290
172 195 158 171 158 135 200 216 217 208 205 278 114 235 273 191 180 180 177 174 175 174 177 185 194 201 205 210 215 220 226 230 236 244 255 266 275 278 282 285 286 288 289 288
211 209 184 168 240 245 191 256 273 260 241 34 152 230 213 194 173 170 166 169 179 182 182 184 191 198 204 210 217 222 229 235 243 252 264 272 278 283 287 289 289 287 288 287
197 217 123 85 127 250 156 216 18 278 139 269 202 244 252 201 201 199 197 194 191 188 188 189 190 190 195 204 213 220 227 236 249 264 275 285 289 292 294 293 292 293 291 288
191 209 134 119 164 135 256 130 173 208 226 243 206 258 226 189 198 196 197 201 195 195 196 196 194 194 197 203 211 220 231 244 257 270 282 293 302 306 307 305 303 298 293 289
181 240 124 170 207 192 167 202 217 297 247 270 293 234 229 202 195 192 196 197 196 197 197 198 198 197 197 201 208 212 216 223 242 265 290 314 328 329 325 318 311 304 299 298
193 239 212 200 113 294 255 229 201 229 187 235 311 279 150 215 201 198 195 194 196 198 198 196 195 194 191 195 199 200 202 210 222 237 280 332 342 339 335 326 316 307 302 299
176 214 210 195 184 187 220 203 212 120 129 212 202 234 81 221 213 203 199 197 199 203 203 202 199 196 197 199 199 201 200 204 206 214 274 323 339 341 337 330 322 316 308 302
185 205 229 237 73 119 198 197 204 210 217 225 229 267 272 222 218 203 210 206 205 209 209 209 207 204 203 203 203 204 204 206 212 231 271 306 321 330 333 330 324 320 316 311
207 241 232 248 247 198 220 200 196 210 227 227 244 231 251 253 227 218 219 214 214 214 214 214 213 211 209 208 207 208 208 212 220 238 272 298 313 322 320 322 321 317 315 312
201 233 207 252 239 231 248 230 207 216 234 245 261 269 251 262 265 234 224 218 219 220 220 220 219 217 216 214 213 211 212 217 228 249 284 292 308 318 318 318 317 314 312 311
183 214 207 251 181 237 258 226 211 210 214 219 228 245 242 237 236 240 236 226 226 225 225 224 222 222 222 221 219 218 218 223 236 254 284 293 307 317 317 315 313 312 310 306
188 201 214 255 172 244 256 25 215 213 219 219 238 253 233 241 248 252 246 236 235 231 236 236 235 236 233 229 227 223 222 228 239 257 280 293 309 314 315 314 312 311 308 305
209 194 209 223 224 277 279 191 184 189 245 233 232 247 252 239 266 264 249 246 242 240 250 246 238 246 246 234 230 223 225 229 240 253 276 296 310 312 313 311 310 310 308 308
195 231 220 166 224 242 100 203 175 154 263 238 218 236 248 222 245 257 268 240 254 252 248 240 228 230 223 221 218 219 225 230 241 256 278 301 308 308 310 308 309 310 309 308
185 199 214 218 237 256 213 150 157 192 269 120 215 227 233 205 219 260 280 255 249 249 246 233 225 226 221 209 210 218 224 229 240 261 285 301 303 305 305 305 308 307 308 310
187 188 202 224 223 247 142 142 200 205 247 246 232 231 222 231 245 249 260 273 261 244 244 219 215 215 209 208 212 215 220 228 248 274 292 297 299 302 303 305 306 307 312 314
217 209 203 200 227 221 188 206 213 239 257 250 240 248 251 256 261 255 247 247 237 221 210 196 196 200 200 199 204 211 221 241 268 285 291 294 301 301 301 301 304 308 312 314
216 218 227 209 230 229 217 226 227 233 241 249 248 261 275 293 279 245 228 219 207 192 183 181 186 192 196 199 205 220 240 261 276 285 291 298 298 296 295 298 304 308 312 313
222 172 222 238 243 227 237 235 232 237 244 246 252 255 268 272 258 244 223 215 216 205 189 183 184 191 198 207 219 238 256 272 282 291 294 293 290 291 293 298 303 306 308 309
219 221 215 238 234 234 240 244 239 239 243 250 251 255 258 250 253 249 239 226 218 213 204 201 201 201 208 223 238 254 267 279 286 288 286 284 286 292 297 300 300 301 303 305
Wind_Speed_850mb
1 10 6 3 3 4 2 4 9 4 2 9 11 25 25 18 16 21 26 30 34 34 24 28 32 34 36 39 39 38 39 35 39 39 38 37 34 33 33 32 30 32 32 32
8 8 6 13 8 3 3 8 8 7 4 9 14 31 22 13 11 11 11 24 31 30 30 31 34 36 35 34 34 36 35 36 36 36 33 34 34 34 34 34 32 33 33 33
12 6 15 6 9 8 6 10 5 7 13 7 15 15 11 9 12 12 15 16 19 28 32 33 38 37 35 34 31 29 27 29 32 31 34 34 35 34 36 34 31 30 31 35
8 7 11 9 7 7 9 3 2 6 9 6 3 3 14 14 11 12 12 14 15 19 27 35 40 40 36 31 31 29 29 29 30 32 33 31 32 33 32 33 34 36 39 42
6 10 13 11 2 8 4 3 2 4 10 10 11 8 10 9 15 15 16 12 10 12 18 23 32 35 32 33 31 31 32 33 33 34 32 32 33 32 34 38 36 39 42 44
4 1 4 2 7 2 13 4 4 5 6 9 7 7 12 18 22 21 16 13 11 10 14 21 27 31 32 31 30 30 32 32 35 34 33 34 35 38 41 41 44 45 44 45
9 11 7 6 9 8 7 6 5 8 9 4 4 8 14 15 12 20 23 19 14 14 16 20 26 30 31 29 28 28 30 31 32 35 37 38 40 44 48 48 50 50 50 49
16 11 21 16 7 3 15 6 7 6 4 2 4 12 4 10 13 13 17 17 17 19 20 22 25 27 28 26 25 27 28 27 29 31 33 38 42 47 51 52 53 54 54 51
12 8 5 2 2 4 12 14 5 0 1 7 6 9 17 14 18 22 24 21 23 23 24 24 24 23 23 22 21 20 20 20 22 24 30 35 39 42 44 45 48 49 47 48
7 5 2 6 4 2 9 7 6 6 6 9 9 11 11 30 35 30 31 34 30 27 26 25 25 24 23 21 19 18 17 17 18 18 21 22 24 28 32 36 38 40 42 44
12 8 7 6 20 22 10 9 7 5 6 5 6 7 2 31 40 41 45 41 35 30 27 28 28 27 25 22 20 18 16 14 12 9 9 11 16 25 33 39 41 43 46 47
18 7 12 10 4 5 9 14 20 9 11 5 4 10 3 6 32 41 45 43 36 32 33 32 32 31 28 25 23 21 18 13 9 6 4 10 20 32 39 43 46 48 49 48
22 14 9 7 7 7 14 22 14 5 2 14 8 5 2 4 14 31 38 40 38 40 41 39 39 39 35 31 28 25 20 16 12 8 6 12 23 33 43 48 49 49 50 49
26 11 22 15 5 8 12 20 29 27 12 18 23 19 5 9 15 29 38 39 44 47 48 46 45 46 42 38 34 30 26 21 16 12 11 16 27 38 47 52 51 50 48 49
14 17 27 28 6 8 7 14 31 40 44 21 16 33 42 21 18 32 41 39 44 45 52 58 54 53 51 47 42 37 32 26 20 16 17 22 32 43 50 53 52 48 46 44
12 14 9 16 16 24 30 29 31 42 43 46 44 52 33 33 17 22 41 47 52 56 63 64 62 58 59 57 50 43 38 31 24 19 18 25 34 46 52 53 50 47 44 43
17 16 10 21 6 7 24 44 43 30 28 41 36 56 28 21 41 55 48 52 58 66 73 74 70 66 64 64 59 53 44 38 31 26 24 28 40 51 54 49 44 42 42 42
19 22 14 13 7 21 10 5 31 47 43 51 39 47 34 46 46 42 43 53 66 63 73 82 84 82 78 61 64 61 52 45 38 32 30 33 46 55 53 46 43 44 46 48
28 22 9 13 22 32 37 11 17 28 32 47 46 56 66 31 18 57 71 60 64 62 62 61 68 68 72 79 68 67 60 50 42 35 34 40 52 56 48 46 47 46 46 45
20 19 23 9 15 20 1 14 21 20 26 34 55 50 58 31 18 33 31 46 58 79 84 65 57 46 45 60 68 64 59 51 42 37 39 46 55 50 48 48 46 47 48 48
16 17 34 29 22 23 15 17 33 18 7 1 34 59 35 24 40 21 13 14 33 42 48 61 63 51 46 54 61 57 50 47 41 39 41 50 50 48 47 46 49 46 45 48
30 23 19 21 25 44 19 22 28 10 7 12 12 19 34 50 40 49 46 34 30 34 36 46 66 53 48 49 50 48 46 41 38 38 45 47 46 46 47 47 44 44 45 48
21 27 26 25 20 8 45 37 59 36 14 13 11 8 13 23 35 34 35 27 21 23 26 42 51 51 45 43 43 43 38 33 34 41 44 45 45 45 42 42 40 41 43 47
27 26 23 14 38 19 35 53 49 54 60 40 22 17 17 22 23 27 29 29 23 23 30 40 46 47 45 42 37 33 31 33 36 40 42 43 42 38 38 37 40 42 45 49
34 30 34 36 39 9 32 42 56 62 72 59 53 49 40 31 29 24 30 42 34 33 34 37 39 39 38 36 33 32 32 33 35 39 41 40 37 35 35 36 40 43 45 47
43 40 28 34 47 42 57 50 64 72 71 73 67 63 57 46 37 31 34 42 45 48 45 43 41 39 35 32 30 31 32 33 38 40 38 35 34 35 39 42 44 46 44 44
Wind_Direction_850mb
119 232 203 124 48 64 93 289 290 290 66 289 265 282 287 289 244 253 242 226 222 225 221 220 223 224 225 227 229 230 234 232 233 237 243 250 259 266 268 272 273 275 278 281
211 240 107 122 134 161 224 279 275 270 260 287 307 296 288 247 245 245 231 219 222 224 221 221 224 225 227 230 231 230 232 232 235 239 245 253 260 262 266 270 276 278 279 280
253 70 146 173 170 216 225 263 283 308 320 256 297 262 210 194 242 241 238 228 223 221 221 218 221 226 226 225 227 228 228 231 235 238 244 247 257 267 276 280 279 278 274 277
254 132 182 189 225 232 265 174 186 310 309 287 273 272 205 198 236 222 210 216 223 220 220 216 219 223 225 224 225 224 224 228 230 232 239 248 263 275 287 289 287 282 279 278
115 180 184 211 241 199 41 142 325 283 271 288 189 254 136 176 216 203 198 196 200 202 202 208 212 216 218 219 221 223 224 224 227 232 239 250 263 277 282 285 290 290 289 286
112 183 232 21 95 46 136 170 213 226 254 241 126 255 193 186 208 183 190 189 181 176 184 193 197 201 208 213 217 220 223 225 229 235 245 257 270 276 281 287 288 290 290 290
172 195 158 171 158 135 200 216 217 208 205 278 114 235 273 191 180 180 177 174 175 174 177 185 194 201 205 210 215 220 226 230 236 244 255 266 275 278 282 285 286 288 289 288
211 209 184 168 240 245 191 256 273 260 241 34 152 230 213 194 173 170 166 169 179 182 182 184 191 198 204 210 217 222 229 235 243 252 264 272 278 283 287 289 289 287 288 287
197 217 123 85 127 250 156 216 18 278 139 269 202 244 252 201 201 199 197 194 191 188 188 189 190 190 195 204 213 220 227 236 249 264 275 285 289 292 294 293 292 293 291 288
191 209 134 119 164 135 256 130 173 208 226 243 206 258 226 189 198 196 197 201 195 195 196 196 194 194 197 203 211 220 231 244 257 270 282 293 302 306 307 305 303 298 293 289
181 240 124 170 207 192 167 202 217 297 247 270 293 234 229 202 195 192 196 197 196 197 197 198 198 197 197 201 208 212 216 223 242 265 290 314 328 329 325 318 311 304 299 298
193 239 212 200 113 294 255 229 201 229 187 235 311 279 150 215 201 198 195 194 196 198 198 196 195 194 191 195 199 200 202 210 222 237 280 332 342 339 335 326 316 307 302 299
176 214 210 195 184 187 220 203 212 120 129 212 202 234 81 221 213 203 199 197 199 203 203 202 199 196 197 199 199 201 200 204 206 214 274 323 339 341 337 330 322 316 308 302
185 205 229 237 73 119 198 197 204 210 217 225 229 267 272 222 218 203 210 206 205 209 209 209 207 204 203 203 203 204 204 206 212 231 271 306 321 330 333 330 324 320 316 311
207 241 232 248 247 198 220 200 196 210 227 227 244 231 251 253 227 218 219 214 214 214 214 214 213 211 209 208 207 208 208 212 220 238 272 298 313 322 320 322 321 317 315 312
201 233 207 252 239 231 248 230 207 216 234 245 261 269 251 262 265 234 224 218 219 220 220 220 219 217 216 214 213 211 212 217 228 249 284 292 308 318 318 318 317 314 312 311
183 214 207 251 181 237 258 226 211 210 214 219 228 245 242 237 236 240 236 226 226 225 225 224 222 222 222 221 219 218 218 223 236 254 284 293 307 317 317 315 313 312 310 306
188 201 214 255 172 244 256 25 215 213 219 219 238 253 233 241 248 252 246 236 235 231 236 236 235 236 233 229 227 223 222 228 239 257 280 293 309 314 315 314 312 311 308 305
209 194 209 223 224 277 279 191 184 189 245 233 232 247 252 239 266 264 249 246 242 240 250 246 238 246 246 234 230 223 225 229 240 253 276 296 310 312 313 311 310 310 308 308
195 231 220 166 224 242 100 203 175 154 263 238 218 236 248 222 245 257 268 240 254 252 248 240 228 230 223 221 218 219 225 230 241 256 278 301 308 308 310 308 309 310 309 308
185 199 214 218 237 256 213 150 157 192 269 120 215 227 233 205 219 260 280 255 249 249 246 233 225 226 221 209 210 218 224 229 240 261 285 301 303 305 305 305 308 307 308 310
187 188 202 224 223 247 142 142 200 205 247 246 232 231 222 231 245 249 260 273 261 244 244 219 215 215 209 208 212 215 220 228 248 274 292 297 299 302 303 305 306 307 312 314
217 209 203 200 227 221 188 206 213 239 257 250 240 248 251 256 261 255 247 247 237 221 210 196 196 200 200 199 204 211 221 241 268 285 291 294 301 301 301 301 304 308 312 314
216 218 227 209 230 229 217 226 227 233 241 249 248 261 275 293 279 245 228 219 207 192 183 181 186 192 196 199 205 220 240 261 276 285 291 298 298 296 295 298 304 308 312 313
222 172 222 238 243 227 237 235 232 237 244 246 252 255 268 272 258 244 223 215 216 205 189 183 184 191 198 207 219 238 256 272 282 291 294 293 290 291 293 298 303 306 308 309
219 221 215 238 234 234 240 244 239 239 243 250 251 255 258 250 253 249 239 226 218 213 204 201 201 201 208 223 238 254 267 279 286 288 286 284 286 292 297 300 300 301 303 305